When you browse on this site, cookies collect data to enhance your experience and personalize the content and advertising you see.
Visit our Privacy Policy to learn more. By continuing to use the site, you agree to this use of cookies and data.
  • In Schweiz
  • Länderverzeichnis
  • Für 7 Tage
  • Wassertemperatur
  • Wetterkarte
  • Widgets
  • user-avatar
    Anmelden

    Stündliche Wetter Lubino

    Heute, 19 August, Montag

    Zeit Temperatur Niederschläge Wind Luftdruck Luftfeuchtigkeit
    00:00 +14°C° 0 mm 2 m/S 742 mmHg 95%
    01:00 +14°C° 0 mm 2 m/S 742 mmHg 95%
    02:00 +14°C° 0 mm 1 m/S 743 mmHg 95%
    03:00 +13°C° 0 mm 1 m/S 743 mmHg 94%
    04:00 +13°C° 0 mm 1 m/S 743 mmHg 94%
    05:00 +13°C° 0 mm 1 m/S 743 mmHg 94%
    06:00 +15°C° 0 mm 1 m/S 744 mmHg 90%
    07:00 +16°C° 0 mm 1 m/S 744 mmHg 87%
    08:00 +18°C° 0 mm 2 m/S 744 mmHg 81%
    09:00 +19°C° 0 mm 2 m/S 744 mmHg 76%
    10:00 +21°C° 0 mm 2 m/S 744 mmHg 71%
    11:00 +22°C° 0 mm 3 m/S 744 mmHg 66%
    12:00 +24°C° 0 mm 3 m/S 745 mmHg 65%
    13:00 +25°C° 0 mm 3 m/S 745 mmHg 65%
    14:00 +26°C° 0 mm 4 m/S 745 mmHg 65%
    15:00 +25°C° 0 mm 3 m/S 745 mmHg 68%
    16:00 +25°C° 0 mm 3 m/S 745 mmHg 72%
    17:00 +25°C° 0 mm 2 m/S 745 mmHg 75%
    18:00 +23°C° 0 mm 2 m/S 745 mmHg 80%
    19:00 +21°C° 0 mm 2 m/S 745 mmHg 85%
    20:00 +19°C° 0 mm 2 m/S 745 mmHg 89%
    21:00 +19°C° 0 mm 3 m/S 745 mmHg 89%
    22:00 +19°C° 0 mm 3 m/S 745 mmHg 89%
    23:00 +18°C° 0 mm 3 m/S 745 mmHg 89%

    Morgen, 20 August, Dienstag

    Zeit Temperatur Niederschläge Wind Luftdruck Luftfeuchtigkeit
    00:00 +18°C° 0 mm 3 m/S 746 mmHg 90%
    01:00 +17°C° 0 mm 3 m/S 746 mmHg 90%
    02:00 +17°C° 0 mm 2 m/S 746 mmHg 91%
    03:00 +17°C° 0.6 mm 2 m/S 746 mmHg 93%
    04:00 +16°C° 0.6 mm 2 m/S 746 mmHg 94%
    05:00 +16°C° 0.6 mm 2 m/S 746 mmHg 95%
    06:00 +17°C° 0.5 mm 2 m/S 747 mmHg 93%
    07:00 +19°C° 0.5 mm 2 m/S 747 mmHg 92%
    08:00 +20°C° 0.5 mm 2 m/S 747 mmHg 90%
    09:00 +21°C° 0.2 mm 2 m/S 747 mmHg 87%
    10:00 +24°C° 0.2 mm 2 m/S 747 mmHg 83%
    11:00 +25°C° 0.2 mm 3 m/S 747 mmHg 79%
    12:00 +25°C° 0.7 mm 3 m/S 747 mmHg 80%
    13:00 +26°C° 0.7 mm 3 m/S 747 mmHg 81%
    14:00 +26°C° 0.7 mm 2 m/S 747 mmHg 83%
    15:00 +25°C° 0.4 mm 2 m/S 747 mmHg 85%
    16:00 +24°C° 0.4 mm 2 m/S 748 mmHg 87%
    17:00 +24°C° 0.4 mm 1 m/S 748 mmHg 89%
    18:00 +23°C° 0.1 mm 1 m/S 748 mmHg 90%
    19:00 +23°C° 0.1 mm 1 m/S 748 mmHg 90%
    20:00 +22°C° 0.1 mm 1 m/S 748 mmHg 91%
    21:00 +21°C° 0 mm 1 m/S 748 mmHg 92%
    22:00 +21°C° 0 mm 1 m/S 748 mmHg 92%
    23:00 +20°C° 0 mm 1 m/S 748 mmHg 93%

    übermorgen, 21 August, Mittwoch

    Zeit Temperatur Niederschläge Wind Luftdruck Luftfeuchtigkeit
    00:00 +20°C° 0 mm 1 m/S 748 mmHg 93%
    01:00 +20°C° 0 mm 1 m/S 748 mmHg 94%
    02:00 +20°C° 0 mm 1 m/S 748 mmHg 94%
    03:00 +19°C° 0 mm 1 m/S 748 mmHg 94%
    04:00 +18°C° 0 mm 2 m/S 748 mmHg 94%
    05:00 +18°C° 0 mm 2 m/S 748 mmHg 94%
    06:00 +19°C° 0 mm 2 m/S 748 mmHg 92%
    07:00 +20°C° 0 mm 2 m/S 748 mmHg 89%
    08:00 +21°C° 0 mm 2 m/S 748 mmHg 86%
    09:00 +22°C° 0 mm 3 m/S 748 mmHg 81%
    10:00 +25°C° 0 mm 3 m/S 748 mmHg 76%
    11:00 +26°C° 0 mm 3 m/S 748 mmHg 71%
    12:00 +27°C° 0 mm 3 m/S 748 mmHg 69%
    13:00 +27°C° 0 mm 3 m/S 748 mmHg 67%
    14:00 +28°C° 0 mm 4 m/S 748 mmHg 65%
    15:00 +28°C° 0 mm 3 m/S 747 mmHg 68%
    16:00 +27°C° 0 mm 3 m/S 747 mmHg 72%
    17:00 +27°C° 0 mm 2 m/S 747 mmHg 75%
    18:00 +25°C° 0 mm 2 m/S 747 mmHg 79%
    19:00 +24°C° 0 mm 2 m/S 747 mmHg 83%
    20:00 +21°C° 0 mm 2 m/S 747 mmHg 87%
    21:00 +21°C° 0 mm 2 m/S 747 mmHg 88%
    22:00 +20°C° 0 mm 2 m/S 747 mmHg 89%
    23:00 +19°C° 0 mm 2 m/S 747 mmHg 89%

    22 August, Donnerstag

    Zeit Temperatur Niederschläge Wind Luftdruck Luftfeuchtigkeit
    00:00 +19°C° 0 mm 2 m/S 746 mmHg 89%
    01:00 +19°C° 0 mm 2 m/S 746 mmHg 89%
    02:00 +18°C° 0 mm 2 m/S 746 mmHg 89%
    03:00 +18°C° 0.4 mm 2 m/S 746 mmHg 90%
    04:00 +18°C° 0.4 mm 2 m/S 746 mmHg 91%
    05:00 +18°C° 0.4 mm 1 m/S 746 mmHg 92%
    06:00 +19°C° 0.4 mm 1 m/S 746 mmHg 92%
    07:00 +19°C° 0.4 mm 1 m/S 746 mmHg 92%
    08:00 +20°C° 0.4 mm 1 m/S 747 mmHg 92%
    09:00 +21°C° 0.3 mm 1 m/S 747 mmHg 90%
    10:00 +22°C° 0.3 mm 1 m/S 747 mmHg 88%
    11:00 +22°C° 0.3 mm 1 m/S 747 mmHg 86%
    12:00 +20°C° 0.1 mm 2 m/S 747 mmHg 88%
    13:00 +19°C° 0.1 mm 3 m/S 747 mmHg 91%
    14:00 +18°C° 0.1 mm 4 m/S 747 mmHg 93%
    15:00 +18°C° 0 mm 4 m/S 747 mmHg 93%
    16:00 +17°C° 0 mm 4 m/S 748 mmHg 93%
    17:00 +17°C° 0 mm 4 m/S 748 mmHg 93%
    18:00 +17°C° 0 mm 4 m/S 748 mmHg 92%
    19:00 +15°C° 0 mm 4 m/S 748 mmHg 92%
    20:00 +15°C° 0 mm 4 m/S 748 mmHg 92%
    21:00 +15°C° 0 mm 4 m/S 749 mmHg 93%
    22:00 +14°C° 0 mm 3 m/S 749 mmHg 94%
    23:00 +13°C° 0 mm 3 m/S 749 mmHg 95%

    23 August, Freitag

    Zeit Temperatur Niederschläge Wind Luftdruck Luftfeuchtigkeit
    00:00 +13°C° 0 mm 3 m/S 749 mmHg 95%
    01:00 +13°C° 0 mm 3 m/S 749 mmHg 95%
    02:00 +12°C° 0 mm 3 m/S 749 mmHg 96%
    03:00 +12°C° 0 mm 3 m/S 749 mmHg 96%
    04:00 +12°C° 0 mm 3 m/S 749 mmHg 96%
    05:00 +12°C° 0 mm 3 m/S 749 mmHg 97%
    06:00 +13°C° 0 mm 3 m/S 749 mmHg 93%
    07:00 +16°C° 0 mm 3 m/S 749 mmHg 89%
    08:00 +17°C° 0 mm 3 m/S 750 mmHg 85%
    09:00 +18°C° 0 mm 3 m/S 750 mmHg 78%
    10:00 +20°C° 0 mm 3 m/S 750 mmHg 72%
    11:00 +21°C° 0 mm 3 m/S 750 mmHg 66%
    12:00 +21°C° 0.1 mm 3 m/S 750 mmHg 64%
    13:00 +22°C° 0.1 mm 3 m/S 750 mmHg 63%
    14:00 +22°C° 0.1 mm 3 m/S 750 mmHg 61%
    15:00 +22°C° 0 mm 3 m/S 750 mmHg 64%
    16:00 +21°C° 0 mm 3 m/S 750 mmHg 67%
    17:00 +21°C° 0 mm 2 m/S 750 mmHg 70%
    18:00 +19°C° 0 mm 2 m/S 750 mmHg 73%
    19:00 +17°C° 0 mm 2 m/S 750 mmHg 76%
    20:00 +15°C° 0 mm 2 m/S 751 mmHg 80%
    21:00 +14°C° 0 mm 2 m/S 751 mmHg 82%
    22:00 +14°C° 0 mm 2 m/S 751 mmHg 84%
    23:00 +13°C° 0 mm 2 m/S 751 mmHg 86%

    24 August, Samstag

    Zeit Temperatur Niederschläge Wind Luftdruck Luftfeuchtigkeit
    00:00 +13°C° 0 mm 1 m/S 751 mmHg 88%
    01:00 +13°C° 0 mm 1 m/S 751 mmHg 89%
    02:00 +12°C° 0 mm 1 m/S 751 mmHg 90%
    03:00 +12°C° 0 mm 1 m/S 751 mmHg 90%
    04:00 +12°C° 0 mm 1 m/S 751 mmHg 91%
    05:00 +11°C° 0 mm 1 m/S 752 mmHg 91%
    06:00 +13°C° 0 mm 1 m/S 752 mmHg 85%
    07:00 +15°C° 0 mm 1 m/S 752 mmHg 79%
    08:00 +18°C° 0 mm 1 m/S 752 mmHg 73%
    09:00 +19°C° 0 mm 1 m/S 752 mmHg 69%
    10:00 +21°C° 0 mm 1 m/S 752 mmHg 64%
    11:00 +22°C° 0 mm 1 m/S 752 mmHg 60%
    12:00 +23°C° 0 mm 1 m/S 752 mmHg 58%
    13:00 +23°C° 0 mm 1 m/S 752 mmHg 56%
    14:00 +24°C° 0 mm 1 m/S 752 mmHg 54%
    15:00 +23°C° 0 mm 1 m/S 752 mmHg 59%
    16:00 +23°C° 0 mm 1 m/S 752 mmHg 63%
    17:00 +23°C° 0 mm 1 m/S 752 mmHg 68%
    18:00 +21°C° 0 mm 1 m/S 751 mmHg 74%
    19:00 +19°C° 0 mm 1 m/S 751 mmHg 80%
    20:00 +16°C° 0 mm 1 m/S 751 mmHg 85%
    21:00 +14°C° 0 mm 0 m/S 751 mmHg 86%
    22:00 +14°C° 0 mm 0 m/S 752 mmHg 87%
    23:00 +13°C° 0 mm 0 m/S 752 mmHg 88%
    Mehr zeigen